| time (UTC) | temp F | wind direction | speed knots | gust knots | rain 1hr in | rain 24hr in | rain mn in | humidity % | barometer mb |
| 20260505051311 | 54 | 174 | 7.0 | 13.0 | 0.00 | 0.00 | 0.00 | 55 | 1011.8 |
| 20260505051039 | 54 | 203 | 6.1 | 13.0 | 0.00 | 0.00 | 0.00 | 57 | 1011.8 |
| 20260505050309 | 54 | 191 | 6.1 | 10.4 | 0.00 | 0.00 | 0.00 | 57 | 1011.9 |
| 20260505041306 | 54 | 138 | 7.8 | 18.2 | 0.00 | 0.00 | 0.00 | 58 | 1012.1 |
| 20260505040806 | 54 | 167 | 7.0 | 16.5 | 0.00 | 0.00 | 0.00 | 58 | 1012.0 |
| 20260505040306 | 54 | 142 | 7.0 | 16.5 | 0.00 | 0.00 | 0.00 | 58 | 1012.1 |
| 20260505035806 | 54 | 195 | 7.0 | 13.9 | 0.00 | 0.00 | 0.00 | 58 | 1012.1 |
| 20260505035305 | 54 | 220 | 6.1 | 12.2 | 0.00 | 0.00 | 0.00 | 58 | 1012.0 |
| 20260505034811 | 55 | 152 | 7.0 | 16.5 | 0.00 | 0.00 | 0.00 | 57 | 1012.1 |
| 20260505034529 | 55 | 114 | 7.0 | 16.5 | 0.00 | 0.00 | 0.00 | 58 | 1012.2 |
| 20260505033807 | 54 | 65 | 6.1 | 12.2 | 0.00 | 0.00 | 0.00 | 58 | 1012.1 |
| 20260505033307 | 54 | 170 | 7.0 | 16.5 | 0.00 | 0.00 | 0.00 | 58 | 1012.1 |
| 20260505032805 | 55 | 203 | 7.8 | 16.5 | 0.00 | 0.00 | 0.00 | 58 | 1012.1 |
| 20260505032525 | 54 | 88 | 7.8 | 16.5 | 0.00 | 0.00 | 0.00 | 58 | 1012.2 |
| 20260505031805 | 54 | 82 | 7.8 | 16.5 | 0.00 | 0.00 | 0.00 | 58 | 1012.2 |
| 20260505031306 | 55 | 192 | 7.0 | 15.6 | 0.00 | 0.00 | 0.00 | 57 | 1012.2 |
| 20260505030804 | 55 | 94 | 7.8 | 15.6 | 0.00 | 0.00 | 0.00 | 58 | 1012.3 |
| 20260505030303 | 55 | 196 | 7.8 | 18.2 | 0.00 | 0.00 | 0.00 | 57 | 1012.3 |
| 20260505025804 | 55 | 177 | 6.1 | 18.2 | 0.00 | 0.00 | 0.00 | 58 | 1012.2 |
| 20260505025527 | 55 | 140 | 7.0 | 13.9 | 0.00 | 0.00 | 0.00 | 58 | 1012.4 |
| 20260505024801 | 55 | 128 | 7.8 | 13.9 | 0.00 | 0.00 | 0.00 | 58 | 1012.4 |
| 20260505024301 | 55 | 157 | 7.0 | 12.2 | 0.00 | 0.00 | 0.00 | 58 | 1012.4 |
| 20260505024022 | 55 | 150 | 7.0 | 13.9 | 0.00 | 0.00 | 0.00 | 57 | 1012.7 |
| 20260505023531 | 55 | 165 | 7.8 | 13.9 | 0.00 | 0.00 | 0.00 | 57 | 1012.7 |
| 20260505022801 | 55 | 171 | 7.8 | 13.0 | 0.00 | 0.00 | 0.00 | 58 | 1012.8 |
| 20260505022301 | 55 | 150 | 7.8 | 20.0 | 0.00 | 0.00 | 0.00 | 58 | 1012.9 |
| 20260505021755 | 55 | 180 | 8.7 | 20.0 | 0.00 | 0.00 | 0.00 | 58 | 1012.9 |
| 20260505021248 | 55 | 147 | 7.8 | 13.9 | 0.00 | 0.00 | 0.00 | 58 | 1012.9 |
| 20260505020748 | 55 | 78 | 6.1 | 13.0 | 0.00 | 0.00 | 0.00 | 58 | 1013.1 |
| 20260505020237 | 55 | 153 | 7.0 | 15.6 | 0.00 | 0.00 | 0.00 | 59 | 1013.0 |
| 20260505015744 | 55 | 176 | 7.0 | 15.6 | 0.00 | 0.00 | 0.00 | 59 | 1013.1 |
| 20260505015235 | 55 | 191 | 7.8 | 13.9 | 0.00 | 0.00 | 0.00 | 59 | 1013.1 |
| 20260505014746 | 55 | 187 | 8.7 | 17.4 | 0.00 | 0.00 | 0.00 | 59 | 1013.1 |
| 20260505014236 | 55 | 146 | 8.7 | 17.4 | 0.00 | 0.00 | 0.00 | 59 | 1013.1 |
| 20260505013747 | 55 | 160 | 7.8 | 17.4 | 0.00 | 0.00 | 0.00 | 58 | 1013.3 |
| 20260505013233 | 56 | 166 | 8.7 | 17.4 | 0.00 | 0.00 | 0.00 | 58 | 1013.1 |
| 20260505012735 | 56 | 144 | 8.7 | 18.2 | 0.00 | 0.00 | 0.00 | 58 | 1013.0 |
| 20260505012231 | 56 | 148 | 7.8 | 18.2 | 0.00 | 0.00 | 0.00 | 58 | 1013.0 |
| 20260505011737 | 56 | 161 | 7.8 | 16.5 | 0.00 | 0.00 | 0.00 | 57 | 1013.1 |
| 20260505011231 | 56 | 98 | 7.8 | 15.6 | 0.00 | 0.00 | 0.00 | 54 | 1013.1 |
| 20260505010733 | 56 | 150 | 7.8 | 15.6 | 0.00 | 0.00 | 0.00 | 55 | 1013.0 |
| 20260505010243 | 56 | 126 | 8.7 | 21.7 | 0.00 | 0.00 | 0.00 | 55 | 1013.0 |
| 20260505005736 | 57 | 148 | 9.6 | 21.7 | 0.00 | 0.00 | 0.00 | 54 | 1013.0 |
| 20260505005231 | 57 | 171 | 8.7 | 18.2 | 0.00 | 0.00 | 0.00 | 54 | 1012.9 |
| 20260505004737 | 57 | 139 | 7.0 | 15.6 | 0.00 | 0.00 | 0.00 | 54 | 1012.9 |
| 20260505004230 | 57 | 145 | 6.1 | 11.3 | 0.00 | 0.00 | 0.00 | 53 | 1012.9 |
| 20260505003734 | 57 | 169 | 6.1 | 11.3 | 0.00 | 0.00 | 0.00 | 52 | 1013.1 |
| 20260505003233 | 57 | 208 | 6.1 | 11.3 | 0.00 | 0.00 | 0.00 | 51 | 1013.0 |
| 20260505002954 | 57 | 144 | 6.1 | 16.5 | 0.00 | 0.00 | 0.00 | 52 | 1013.2 |
| 20260505002220 | 57 | 186 | 6.1 | 16.5 | 0.00 | 0.00 | 0.00 | 51 | 1013.1 |
| 20260505001948 | 58 | 152 | 6.1 | 11.3 | 0.00 | 0.00 | 0.00 | 50 | 1013.1 |
| 20260505001209 | 57 | 192 | 6.1 | 11.3 | 0.00 | 0.00 | 0.00 | 50 | 1013.2 |
| 20260505000709 | 57 | 172 | 6.1 | 10.4 | 0.00 | 0.00 | 0.00 | 51 | 1013.2 |
| 20260505000211 | 57 | 213 | 6.1 | 11.3 | 0.00 | 0.00 | 0.00 | 52 | 1013.3 |
| 20260504235709 | 57 | 163 | 6.1 | 12.2 | 0.00 | 0.00 | 0.00 | 52 | 1013.5 |
| 20260504235209 | 57 | 170 | 6.1 | 15.6 | 0.00 | 0.00 | 0.00 | 52 | 1013.5 |
| 20260504234709 | 57 | 126 | 6.1 | 15.6 | 0.00 | 0.00 | 0.00 | 51 | 1013.5 |
| 20260504234209 | 57 | 163 | 4.3 | 13.9 | 0.00 | 0.00 | 0.00 | 50 | 1013.6 |
| 20260504233709 | 56 | 138 | 4.3 | 9.6 | 0.00 | 0.00 | 0.00 | 50 | 1013.6 |
| 20260504233209 | 56 | 173 | 6.1 | 9.6 | 0.00 | 0.00 | 0.00 | 50 | 1013.6 |
| 20260504232717 | 56 | 161 | 4.3 | 9.6 | 0.00 | 0.00 | 0.00 | 49 | 1013.6 |
| 20260504232438 | 57 | 173 | 3.5 | 8.7 | 0.00 | 0.00 | 0.00 | 50 | 1013.6 |
| 20260504231709 | 57 | 144 | 3.5 | 8.7 | 0.00 | 0.00 | 0.00 | 49 | 1013.7 |
| 20260504231209 | 56 | 194 | 4.3 | 11.3 | 0.00 | 0.00 | 0.00 | 50 | 1013.7 |
| 20260504230709 | 56 | 171 | 3.5 | 11.3 | 0.00 | 0.00 | 0.00 | 53 | 1013.8 |
| 20260504230702 | 57 | 193 | 3.5 | 7.8 | 0.00 | 0.00 | 0.00 | 53 | 1014.0 |
| 20260504230658 | 55 | 196 | 2.6 | 7.0 | 0.00 | 0.00 | 0.00 | 56 | 1013.9 |
| 20260504230654 | 56 | 151 | 3.5 | 7.8 | 0.00 | 0.00 | 0.00 | 52 | 1014.0 |
| 20260504224705 | 56 | 150 | 3.5 | 7.8 | 0.00 | 0.00 | 0.00 | 54 | 1013.9 |
| 20260504224205 | 58 | 146 | 4.3 | 9.6 | 0.00 | 0.00 | 0.00 | 52 | 1014.1 |
| 20260504223705 | 59 | 149 | 6.1 | 9.6 | 0.00 | 0.00 | 0.00 | 49 | 1014.2 |
| 20260504223656 | 58 | 132 | 6.1 | 10.4 | 0.00 | 0.00 | 0.00 | 49 | 1014.4 |
| 20260504222705 | 58 | 140 | 6.1 | 11.3 | 0.00 | 0.00 | 0.00 | 51 | 1014.4 |
| 20260504222205 | 58 | 121 | 7.0 | 12.2 | 0.00 | 0.00 | 0.00 | 52 | 1014.5 |
| 20260504221705 | 58 | 150 | 6.1 | 12.2 | 0.00 | 0.00 | 0.00 | 51 | 1014.5 |
| 20260504221205 | 58 | 140 | 6.1 | 13.9 | 0.00 | 0.00 | 0.00 | 53 | 1014.5 |
| 20260504220705 | 58 | 169 | 4.3 | 13.9 | 0.00 | 0.00 | 0.00 | 52 | 1014.5 |
| 20260504220429 | 58 | 180 | 4.3 | 9.6 | 0.00 | 0.00 | 0.00 | 53 | 1014.6 |
| 20260504215706 | 58 | 157 | 6.1 | 10.4 | 0.00 | 0.00 | 0.00 | 52 | 1014.6 |
| 20260504215205 | 58 | 142 | 7.0 | 11.3 | 0.00 | 0.00 | 0.00 | 53 | 1014.7 |
| 20260504214704 | 58 | 158 | 7.8 | 12.2 | 0.00 | 0.00 | 0.00 | 53 | 1014.7 |
| 20260504214202 | 57 | 148 | 6.1 | 12.2 | 0.00 | 0.00 | 0.00 | 54 | 1014.8 |
| 20260504214152 | 56 | 124 | 4.3 | 9.6 | 0.00 | 0.00 | 0.00 | 57 | 1014.8 |
| 20260504213202 | 56 | 165 | 3.5 | 9.6 | 0.00 | 0.00 | 0.00 | 59 | 1015.0 |
| 20260504212702 | 55 | 159 | 2.6 | 7.8 | 0.00 | 0.00 | 0.00 | 59 | 1015.0 |
| 20260504212203 | 55 | 153 | 3.5 | 7.8 | 0.00 | 0.00 | 0.00 | 61 | 1015.0 |
| 20260504211702 | 55 | 174 | 3.5 | 7.8 | 0.00 | 0.00 | 0.00 | 59 | 1015.0 |
| 20260504211202 | 54 | 205 | 3.5 | 8.7 | 0.00 | 0.00 | 0.00 | 61 | 1015.0 |
| 20260504210702 | 55 | 130 | 3.5 | 8.7 | 0.00 | 0.00 | 0.00 | 61 | 1015.1 |
| 20260504210423 | 55 | 139 | 2.6 | 7.0 | 0.00 | 0.00 | 0.00 | 60 | 1015.3 |
| 20260504205702 | 55 | 156 | 2.6 | 6.1 | 0.00 | 0.00 | 0.00 | 60 | 1015.1 |
| 20260504205203 | 57 | 121 | 3.5 | 7.8 | 0.00 | 0.00 | 0.00 | 57 | 1015.1 |
| 20260504204925 | 56 | 133 | 3.5 | 7.8 | 0.00 | 0.00 | 0.00 | 57 | 1015.3 |
| 20260504204204 | 58 | 150 | 3.5 | 9.6 | 0.00 | 0.00 | 0.00 | 54 | 1015.4 |
| 20260504203704 | 58 | 171 | 6.1 | 11.3 | 0.00 | 0.00 | 0.00 | 53 | 1015.3 |
| 20260504203425 | 58 | 133 | 6.1 | 11.3 | 0.00 | 0.00 | 0.00 | 52 | 1015.1 |
| 20260504202704 | 58 | 146 | 3.5 | 8.7 | 0.00 | 0.00 | 0.00 | 52 | 1015.1 |
| 20260504202203 | 58 | 133 | 3.5 | 8.7 | 0.00 | 0.00 | 0.00 | 52 | 1015.1 |
| 20260504201701 | 58 | 124 | 3.5 | 9.6 | 0.00 | 0.00 | 0.00 | 51 | 1015.0 |
| 20260504201205 | 59 | 157 | 3.5 | 10.4 | 0.00 | 0.00 | 0.00 | 51 | 1014.9 |
| 20260504200701 | 59 | 134 | 4.3 | 10.4 | 0.00 | 0.00 | 0.00 | 50 | 1015.0 |
| 20260504200435 | 59 | 140 | 3.5 | 7.8 | 0.00 | 0.00 | 0.00 | 51 | 1014.9 |
| 20260504195927 | 59 | 136 | 4.3 | 8.7 | 0.00 | 0.00 | 0.00 | 51 | 1014.8 |
| 20260504195201 | 59 | 165 | 4.3 | 8.7 | 0.00 | 0.00 | 0.00 | 51 | 1014.8 |
| 20260504194701 | 59 | 166 | 6.1 | 10.4 | 0.00 | 0.00 | 0.00 | 51 | 1014.9 |
| 20260504194425 | 59 | 146 | 6.1 | 10.4 | 0.00 | 0.00 | 0.00 | 51 | 1014.8 |
| 20260504193702 | 59 | 148 | 6.1 | 10.4 | 0.00 | 0.00 | 0.00 | 50 | 1014.9 |
| 20260504193427 | 59 | 146 | 4.3 | 9.6 | 0.00 | 0.00 | 0.00 | 50 | 1014.8 |
| 20260504192701 | 59 | 164 | 3.5 | 8.7 | 0.00 | 0.00 | 0.00 | 52 | 1014.9 |
| 20260504192201 | 59 | 156 | 4.3 | 10.4 | 0.00 | 0.00 | 0.00 | 50 | 1014.8 |
| 20260504191927 | 59 | 130 | 4.3 | 10.4 | 0.00 | 0.00 | 0.00 | 50 | 1014.8 |
| 20260504191202 | 59 | 146 | 4.3 | 8.7 | 0.00 | 0.00 | 0.00 | 52 | 1014.8 |
| 20260504190701 | 59 | 164 | 3.5 | 8.7 | 0.00 | 0.00 | 0.00 | 51 | 1014.7 |
| 20260504190201 | 59 | 164 | 4.3 | 10.4 | 0.00 | 0.00 | 0.00 | 53 | 1014.7 |
| 20260504185702 | 60 | 160 | 6.1 | 10.4 | 0.00 | 0.00 | 0.00 | 49 | 1014.7 |
| 20260504185201 | 60 | 131 | 4.3 | 8.7 | 0.00 | 0.00 | 0.00 | 50 | 1014.7 |
| 20260504184702 | 60 | 147 | 6.1 | 11.3 | 0.00 | 0.00 | 0.00 | 49 | 1014.6 |
| 20260504184651 | 60 | 175 | 6.1 | 11.3 | 0.00 | 0.00 | 0.00 | 47 | 1014.6 |
| 20260504183701 | 60 | 146 | 6.1 | 11.3 | 0.00 | 0.00 | 0.00 | 47 | 1014.5 |
| 20260504183201 | 60 | 142 | 6.1 | 11.3 | 0.00 | 0.00 | 0.00 | 47 | 1014.6 |
| 20260504182701 | 60 | 128 | 4.3 | 9.6 | 0.00 | 0.00 | 0.00 | 48 | 1014.5 |
| 20260504182201 | 60 | 150 | 6.1 | 9.6 | 0.00 | 0.00 | 0.00 | 49 | 1014.5 |
| 20260504181701 | 60 | 161 | 4.3 | 9.6 | 0.00 | 0.00 | 0.00 | 49 | 1014.5 |
| 20260504181201 | 59 | 179 | 3.5 | 7.8 | 0.00 | 0.00 | 0.00 | 50 | 1014.5 |
| 20260504180701 | 60 | 159 | 3.5 | 7.8 | 0.00 | 0.00 | 0.00 | 48 | 1014.5 |
| 20260504180202 | 59 | 150 | 4.3 | 7.8 | 0.00 | 0.00 | 0.00 | 50 | 1014.4 |
| 20260504175701 | 61 | 152 | 4.3 | 8.7 | 0.00 | 0.00 | 0.00 | 47 | 1014.4 |
| 20260504175202 | 61 | 178 | 4.3 | 8.7 | 0.00 | 0.00 | 0.00 | 48 | 1014.4 |
| 20260504174701 | 62 | 153 | 6.1 | 9.6 | 0.00 | 0.00 | 0.00 | 45 | 1014.4 |
| 20260504174201 | 62 | 106 | 7.0 | 13.0 | 0.00 | 0.00 | 0.00 | 45 | 1014.2 |
| 20260504173700 | 62 | 154 | 7.0 | 13.0 | 0.00 | 0.00 | 0.00 | 44 | 1014.1 |
| 20260504173204 | 62 | 141 | 6.1 | 12.2 | 0.00 | 0.00 | 0.00 | 43 | 1014.4 |
| 20260504172927 | 63 | 152 | 4.3 | 11.3 | 0.00 | 0.00 | 0.00 | 44 | 1014.2 |
| 20260504172420 | 63 | 142 | 4.3 | 10.4 | 0.00 | 0.00 | 0.00 | 42 | 1014.1 |
| 20260504171649 | 62 | 53 | 4.3 | 10.4 | 0.00 | 0.00 | 0.00 | 43 | 1014.4 |
| 20260504171142 | 63 | 154 | 4.3 | 9.6 | 0.00 | 0.00 | 0.00 | 43 | 1014.4 |
| 20260504170634 | 62 | 137 | 4.3 | 8.7 | 0.00 | 0.00 | 0.00 | 45 | 1014.2 |
| 20260504170135 | 62 | 142 | 6.1 | 9.6 | 0.00 | 0.00 | 0.00 | 46 | 1014.4 |
| 20260504160132 | 64 | 159 | 6.1 | 12.2 | 0.00 | 0.00 | 0.00 | 42 | 1014.1 |
| 20260504151131 | 66 | 132 | 7.0 | 12.2 | 0.00 | 0.00 | 0.00 | 37 | 1014.1 |
| 20260504150629 | 66 | 128 | 7.0 | 13.0 | 0.00 | 0.00 | 0.00 | 37 | 1014.4 |
| 20260504150129 | 66 | 115 | 6.1 | 13.0 | 0.00 | 0.00 | 0.00 | 36 | 1014.1 |
| 20260504140620 | 67 | 173 | 6.1 | 15.6 | 0.00 | 0.00 | 0.00 | 33 | 1014.1 |
| 20260504140117 | 67 | 115 | 6.1 | 15.6 | 0.00 | 0.00 | 0.00 | 32 | 1014.2 |
| 20260504130617 | 69 | 199 | 4.3 | 12.2 | 0.00 | 0.00 | 0.00 | 32 | 1014.4 |
| 20260504130117 | 69 | 192 | 6.1 | 12.2 | 0.00 | 0.00 | 0.00 | 32 | 1014.5 |
| 20260504120136 | 69 | 81 | 6.1 | 13.0 | 0.00 | 0.00 | 0.00 | 34 | 1014.8 |
| 20260504120132 | 69 | 177 | 7.0 | 13.0 | 0.00 | 0.00 | 0.00 | 34 | 1014.8 |
| 20260504110609 | 68 | 229 | 7.0 | 16.5 | 0.00 | 0.00 | 0.00 | 34 | 1015.4 |
| 20260504110109 | 69 | 161 | 7.0 | 19.1 | 0.00 | 0.00 | 0.00 | 35 | 1015.4 |
| 20260504100603 | 68 | 200 | 6.1 | 12.2 | 0.00 | 0.00 | 0.00 | 34 | 1015.7 |
| 20260504100108 | 67 | 201 | 4.3 | 11.3 | 0.00 | 0.00 | 0.00 | 33 | 1015.8 |
| 20260504081531 | 65 | 205 | 4.3 | 13.9 | 0.00 | 0.00 | 0.00 | 39 | 1016.3 |
| 20260504081030 | 64 | 213 | 2.6 | 13.9 | 0.00 | 0.00 | 0.00 | 41 | 1016.4 |
| 20260504080525 | 63 | 300 | 1.7 | 3.5 | 0.00 | 0.00 | 0.00 | 45 | 1016.4 |